Regional Weather Roundup
Issued by NWS

Home | Current Version | Previous Version | Text Only | Print | Product List | Glossary On
Versions: 1 2 3 4 5 6 7 8 9 10 11 12 13 14 15 16 17 18 19 20 21 22 23 24 25 26 27 28 29 30 31 32 33 34 35 36 37 38 39 40 41 42 43 44 45 46 47 48 49 50
369
ASUS43 KLSX 211459
RWRMO

WEATHER SUMMARY FOR MISSOURI
NATIONAL WEATHER SERVICE SPRINGFIELD MO
1000 AM CDT THU MAY 21 2015

NOTE: "FAIR" INDICATES FEW OR NO CLOUDS BELOW 12,000 FEET WITH NO
       SIGNIFICANT WEATHER AND/OR OBSTRUCTIONS TO VISIBILITY.
       CURRENT SKY AND/OR WEATHER CONDITIONS ARE NOT AVAILABLE FOR
       CHILLICOTHE AND FARMINGTON.

MOZ001>031-035>038-043-044-053-054-211600-
...NORTHERN AND WESTERN MISSOURI...

CITY           SKY/WX    TMP DP  RH WIND       PRES   REMARKS
KANSAS CTY INT MOSUNNY   53  44  71 N8        30.28F
KANSAS C DTWN  SUNNY     55  43  63 N9        30.28F
LEE`S SUMMIT   PTSUNNY   53  44  71 N8        30.28F
ST JOSEPH      SUNNY     55  46  71 N7        30.29F
KIRKSVILLE     SUNNY     54  43  66 W9        30.24F

$$
MOZ066>068-077>081-088>096-101>105-211600-
...SOUTHWEST MISSOURI...

CITY           SKY/WX    TMP DP  RH WIND       PRES   REMARKS
SPRINGFIELD    PTSUNNY   52  42  69 N12       30.24S
JOPLIN         CLOUDY    53  46  77 N9        30.27R

$$
MOZ032>034-039>042-045>050-055>058-069>072-211600-
...CENTRAL MISSOURI...

CITY           SKY/WX    TMP DP  RH WIND       PRES   REMARKS
COLUMBIA       PTSUNNY   52  44  74 N10       30.24F
JEFFERSON CITY CLOUDY    52  42  69 NW10      30.25F
ROLLA          CLOUDY    48  41  76 N12       30.21F
SEDALIA        MOSUNNY   54  45  71 N10       30.27F
OSAGE BEACH    CLOUDY    54  43  66 NW8       30.24F

$$
MOZ051-052-059>065-211600-
...EAST CENTRAL MISSOURI...

CITY           SKY/WX    TMP DP  RH WIND       PRES   REMARKS
ST LOUIS INTL  PTSUNNY   52  40  63 NW10      30.23S
SPIRIT OF STL  CLOUDY    51  40  65 NW9       30.23S
ST CHARLES     PTSUNNY   52  41  66 NW8       30.22F

$$
MOZ072>076-082>087-097>100-106>115-211600-
...SOUTH CENTRAL AND SOUTHEAST MISSOURI...

CITY           SKY/WX    TMP DP  RH WIND       PRES   REMARKS
CAPE GIRARDEAU CLOUDY    51  43  74 N10       30.19F
FARMINGTON     CLOUDY    46  39  76 N9        30.24S
POPLAR BLUFF   LGT RAIN  50  41  71 N9        30.21S
WEST PLAINS    PTSUNNY   52  42  69 N10       30.24R

$$



USA.gov is the U.S. government's official web portal to all federal, state and local government web resources and services.